Location: Saluda
(35.2377°N, 82.3468°W)
Time: 05:49:06
(UTC+00:00)

Vanguard 2 - Pass Details

Date: 12 October 2022
Orbit: 553 x 2933 km, 32.9° (Epoch: 26 November)

Event Time Altitude Azimuth Distance (km) Brightness Sun altitude
Rises 21:32:38 0° 280° (W) 5,192 12.8 16.0°
Reaches altitude 10° 21:35:53 10° 273° (W) 4,490 12.9 15.4°
Maximum altitude 21:47:56 41° 209° (SSW) 3,408 11.6 13.1°
Drops below altitude 10° 22:03:38 10° 147° (SSE) 5,754 11.8 10.0°
Sets 22:08:34 0° 141° (SE) 6,743 12.1 9.0°
